Date String (YYYY-MM-DD hh:mm:ss) UTC,Instrument flags,Ambient pressure (hPa),Sample flow (lpm),Bypass flow (lpm),Sample temperature (°C),Ambient temperature (°C),ASC tube jacket temperature (°C),LED temperature (°C),Box temperature (°C),Sample RH (%),Span deviation,Mass concentration (μg/m³),Mass concentration (μg/m³),Mass concentration (μg/m³)
DateTimeUTC,F1_M11,P_M11,Q1_M11,Q2_M11,T1_M11,T2_M11,T3_M11,T4_M11,T5_M11,U1_M11,ZSPAN_M11,X0_M11,X2_M11,X1_M11
2022-05-22 21:00:00,,0827.6,5.00,0.00,28.7,28.0,00.0,37.5,30.6,15.3,0000.0,0000.13,0000.04,0000.00
2022-05-22 21:01:00,,0827.6,5.00,0.00,28.7,28.0,00.0,37.5,30.6,15.4,0000.0,0000.13,0000.04,0000.00
2022-05-22 21:02:00,,0827.6,4.99,0.00,28.8,28.1,00.0,37.5,30.7,15.4,0000.0,0000.13,0000.04,0000.00
2022-05-22 21:03:00,,0827.6,5.00,0.00,28.8,28.1,00.0,37.6,30.7,15.5,0000.0,0000.13,0000.04,0000.00
2022-05-22 21:04:00,,0827.5,5.00,0.00,28.8,28.1,00.0,37.6,30.7,15.3,0000.0,0000.13,0000.04,0000.00
2022-05-22 21:05:00,,0827.5,5.00,0.00,28.8,28.1,00.0,37.6,30.7,15.4,0000.0,0000.10,0000.03,0000.00
2022-05-22 21:06:00,,0827.5,4.99,0.00,28.8,28.1,00.0,37.6,30.7,15.8,0000.0,0000.08,0000.03,0000.00
2022-05-22 21:07:00,,0827.6,5.00,0.00,28.8,28.1,00.0,37.6,30.7,16.0,0000.0,0000.04,0000.01,0000.00
2022-05-22 21:08:00,,0827.5,4.99,0.00,28.9,28.1,00.0,37.6,30.7,16.3,0000.0,0000.04,0000.01,0000.00
2022-05-22 21:09:00,,0827.5,5.00,0.00,28.9,28.1,00.0,37.7,30.8,16.5,0000.0,0000.04,0000.01,0000.00
2022-05-22 21:10:00,,0827.5,5.01,0.00,28.9,28.1,00.0,37.7,30.8,16.3,0000.0,0000.03,0000.01,0000.00
2022-05-22 21:11:00,,0827.5,4.99,0.00,28.9,28.2,00.0,37.7,30.8,16.5,0000.0,0000.00,0000.00,0000.00
2022-05-22 21:12:00,,0827.4,5.01,0.00,28.9,28.2,00.0,37.7,30.8,16.2,0000.0,0000.00,0000.00,0000.00
2022-05-22 21:13:00,,0827.3,5.01,0.00,28.9,28.2,00.0,37.7,30.8,15.7,0000.0,0000.00,0000.00,0000.00
2022-05-22 21:14:00,,0827.4,5.00,0.00,28.9,28.2,00.0,37.7,30.8,16.1,0000.0,0000.00,0000.00,0000.00
2022-05-22 21:15:00,,0827.4,5.00,0.00,28.9,28.2,00.0,37.8,30.8,15.8,0000.0,0000.00,0000.00,0000.00
2022-05-22 21:16:00,,0827.4,4.99,0.00,29.0,28.2,00.0,37.8,30.8,15.5,0000.0,0000.01,0000.00,0000.00
2022-05-22 21:17:00,,0827.4,5.00,0.00,29.0,28.2,00.0,37.8,30.9,16.1,0000.0,0000.01,0000.00,0000.00
2022-05-22 21:18:00,,0827.4,5.00,0.00,29.0,28.3,00.0,37.8,30.9,15.8,0000.0,0000.01,0000.00,0000.00
2022-05-22 21:19:00,,0827.4,5.00,0.00,29.0,28.3,00.0,37.8,30.9,15.3,0000.0,0000.00,0000.00,0000.00
2022-05-22 21:20:00,,0827.4,5.00,0.00,29.0,28.3,00.0,37.8,30.9,15.5,0000.0,0000.00,0000.00,0000.00
2022-05-22 21:21:00,,0827.4,4.99,0.00,29.0,28.3,00.0,37.8,30.9,16.3,0000.0,0000.01,0000.01,0000.00
2022-05-22 21:22:00,,0827.4,4.99,0.00,29.0,28.3,00.0,37.9,30.9,16.4,0000.0,0000.04,0000.02,0000.01
2022-05-22 21:23:00,,0827.4,5.00,0.00,29.1,28.3,00.0,37.9,30.9,16.3,0000.0,0000.07,0000.04,0000.01
2022-05-22 21:24:00,,0827.4,5.00,0.00,29.1,28.3,00.0,37.9,30.9,16.4,0000.0,0000.07,0000.04,0000.01
2022-05-22 21:25:00,,0827.4,5.00,0.00,29.1,28.3,00.0,37.9,30.9,16.2,0000.0,0000.23,0000.09,0000.02
2022-05-22 21:26:00,,0827.4,5.01,0.00,29.1,28.3,00.0,37.9,30.9,16.0,0000.0,0000.28,0000.11,0000.03
2022-05-22 21:27:00,,0827.4,5.00,0.00,29.1,28.3,00.0,37.9,30.9,16.2,0000.0,0000.28,0000.11,0000.03
2022-05-22 21:28:00,,0827.4,5.00,0.00,29.1,28.3,00.0,37.9,31.0,16.4,0000.0,0000.28,0000.11,0000.03
2022-05-22 21:29:00,,0827.4,5.00,0.00,29.1,28.3,00.0,37.9,30.9,15.3,0000.0,0000.58,0000.11,0000.03
2022-05-22 21:30:00,,0827.4,5.00,0.00,29.1,28.3,00.0,38.0,30.9,15.4,0000.0,0001.29,0000.11,0000.03
2022-05-22 21:31:00,,0827.3,5.00,0.00,29.1,28.3,00.0,38.0,30.9,15.6,0000.0,0001.29,0000.11,0000.03
2022-05-22 21:32:00,,0827.3,5.00,0.00,29.1,28.3,00.0,38.0,30.9,15.1,0000.0,0001.29,0000.11,0000.03
2022-05-22 21:33:00,,0827.3,5.00,0.00,29.1,28.3,00.0,38.0,30.9,15.5,0000.0,0001.27,0000.09,0000.03
2022-05-22 21:34:00,,0827.3,5.00,0.00,29.1,28.3,00.0,38.0,30.9,15.4,0000.0,0001.25,0000.09,0000.02
2022-05-22 21:35:00,,0827.7,5.00,0.00,29.1,28.3,00.0,38.0,30.9,15.5,0000.0,0001.24,0000.08,0000.02
2022-05-22 21:36:00,,0827.4,5.00,0.00,29.1,28.2,00.0,38.0,30.8,15.7,0000.0,0001.12,0000.04,0000.01
2022-05-22 21:37:00,,0827.4,4.99,0.00,29.1,28.2,00.0,38.0,30.8,15.5,0000.0,0001.04,0000.01,0000.00
2022-05-22 21:38:00,,0827.4,5.00,0.00,29.1,28.2,00.0,38.0,30.8,16.3,0000.0,0001.04,0000.01,0000.00
2022-05-22 21:39:00,,0827.3,5.00,0.00,29.1,28.2,00.0,38.0,30.9,16.1,0000.0,0001.04,0000.01,0000.00
2022-05-22 21:40:00,,0827.7,5.00,0.00,29.1,28.2,00.0,38.0,30.9,16.2,0000.0,0000.82,0000.01,0000.00
2022-05-22 21:41:00,,0827.7,5.00,0.00,29.1,28.2,00.0,38.0,30.9,15.8,0000.0,0000.02,0000.01,0000.00
2022-05-22 21:42:00,,0827.7,5.00,0.00,29.1,28.1,00.0,38.0,30.9,16.2,0000.0,0000.02,0000.01,0000.00
2022-05-22 21:43:00,,0827.5,5.00,0.00,29.1,28.1,00.0,38.0,30.9,16.7,0000.0,0000.02,0000.01,0000.01
2022-05-22 21:44:00,,0827.4,4.99,0.00,29.1,28.2,00.0,38.0,30.9,16.0,0000.0,0000.01,0000.01,0000.00
2022-05-22 21:45:00,,0827.3,5.00,0.00,29.1,28.2,00.0,38.0,30.9,16.0,0000.0,0000.01,0000.00,0000.00
2022-05-22 21:46:00,,0827.5,4.99,0.00,29.1,28.2,00.0,38.0,30.9,15.9,0000.0,0000.01,0000.00,0000.00
2022-05-22 21:47:00,,0827.8,5.00,0.00,29.1,28.3,00.0,38.0,30.9,15.8,0000.0,0000.01,0000.00,0000.00
2022-05-22 21:48:00,,0827.5,5.00,0.00,29.1,28.3,00.0,38.0,30.9,16.4,0000.0,0000.06,0000.02,0000.01
2022-05-22 21:49:00,,0827.7,5.01,0.00,29.1,28.3,00.0,38.0,31.0,15.9,0000.0,0000.06,0000.02,0000.01
2022-05-22 21:50:00,,0827.6,5.01,0.00,29.1,28.3,00.0,38.0,31.0,15.7,0000.0,0000.06,0000.02,0000.01
2022-05-22 21:51:00,,0827.2,5.01,0.00,29.1,28.4,00.0,38.0,31.0,15.3,0000.0,0000.06,0000.02,0000.01
2022-05-22 21:52:00,,0827.2,5.01,0.00,29.1,28.4,00.0,38.0,31.0,15.1,0000.0,0000.06,0000.02,0000.01
2022-05-22 21:53:00,,0827.2,4.99,0.00,29.2,28.4,00.0,38.0,31.0,15.4,0000.0,0000.06,0000.02,0000.01
2022-05-22 21:54:00,,0827.2,5.00,0.00,29.2,28.4,00.0,38.1,31.0,15.5,0000.0,0000.05,0000.02,0000.01
2022-05-22 21:55:00,,0827.2,5.00,0.00,29.2,28.5,00.0,38.1,31.1,14.9,0000.0,0000.05,0000.02,0000.01
2022-05-22 21:56:00,,0827.1,4.99,0.00,29.2,28.5,00.0,38.1,31.1,15.6,0000.0,0000.05,0000.02,0000.00
2022-05-22 21:57:00,,0827.2,4.99,0.00,29.2,28.5,00.0,38.1,31.1,16.2,0000.0,0000.98,0000.02,0000.00
2022-05-22 21:58:00,,0827.1,5.00,0.00,29.2,28.5,00.0,38.1,31.1,15.7,0000.0,0001.06,0000.02,0000.00
2022-05-22 21:59:00,,0827.1,5.01,0.00,29.2,28.5,00.0,38.1,31.0,15.6,0000.0,0001.02,0000.00,0000.00
